Regional Weather Roundup
Issued by NWS

Home | Current Version | Previous Version | Text Only | Print | Product List | Glossary Off
Versions: 1 2 3 4 5 6 7 8 9 10 11 12 13 14 15 16 17 18 19 20 21 22 23 24 25 26 27

000
ASUS45 KCYS 290110
RWRWY

WYOMING REGIONAL WEATHER ROUNDUP
NATIONAL WEATHER SERVICE CHEYENNE WY
700 PM MDT SAT MAY 28 2016

NOTE:  "FAIR" INDICATES FEW OR NO CLOUDS BELOW 12,000 FEET
WITH NO SIGNIFICANT WEATHER AND/OR OBSTRUCTIONS TO VISIBILITY.

WYZ001-290200-
YELLOWSTONE NATIONAL PARK

CITY           SKY/WX    TMP DP  RH WIND       PRES   REMARKS
LK YELLOWSTONE   N/A     48  27  44 W5        30.18R
W YELLOWSTONE  NOT AVBL

$$
WYZ002>013-054>058-071-098>099-290200-
NORTHERN WYOMING

CITY           SKY/WX    TMP DP  RH WIND       PRES   REMARKS
JACKSON        NOT AVBL
CODY           FAIR      61  43  51 NE7       30.00S
GREYBULL       FAIR      71  34  25 N7        29.94R
WORLAND        FAIR      70  37  29 N7        29.94S
SHERIDAN       PTSUNNY   67  43  41 CALM      30.00R
BUFFALO          N/A     63  44  50 N7        30.04R
GILLETTE       FAIR      65  42  43 N6        30.00R
HULETT         MOCLDY    66  43  42 N8        30.01R
NEWCASTLE      FAIR      61  37  41 SE9       30.00R

$$
WYZ014>020-022>026-101>103-290200-
CENTRAL WYOMING

CITY           SKY/WX    TMP DP  RH WIND       PRES   REMARKS
BIG PINEY      FAIR      60  26  27 N10       30.11S
PINEDALE       FAIR      57  23  26 NW12      30.12R
DUBOIS         FAIR      57  18  21 N16G24    30.08R
LANDER         FAIR      67  25  20 NW13      29.98R
RIVERTON       FAIR      69  23  17 W8        29.99R
CASPER         FAIR      65  41  41 NE7       30.01R
DOUGLAS          N/A    N/A N/A N/A MISG      30.03R

$$
WYZ021-027>030-104>119-290200-
SOUTHERN WYOMING

CITY           SKY/WX    TMP DP  RH WIND       PRES   REMARKS
EVANSTON       FAIR      60  28  29 W18       30.13S
KEMMERER         N/A     57  30  35 W17       30.15R
FORT BRIDGER   CLEAR     63  28  27 W20G25    30.16R
ROCK SPRINGS   CLOUDY    57  38  48 SW14      30.11R
DIXON          FAIR      64  34  32 SW7       30.13R
RAWLINS        PTSUNNY   60  33  36 SW14      30.09R
SARATOGA       FAIR      61  32  33 W8        30.13R
LARAMIE        FAIR      60  29  30 MISG      30.12R
CHEYENNE       PTSUNNY   66  34  30 W6        30.07R
TORRINGTON     FAIR      69  43  38 NE10      29.97R
PINE BLUFFS    MOCLDY    63  43  48 S10       30.05R

$$




USA.gov is the U.S. government's official web portal to all federal, state and local government web resources and services.